Flag for United Kingdom Weather past 2 weeks in Weymouth, England, United Kingdom

Now
52 °F

Cool.


Feels Like: 48 °F
Forecast: 50 / 56 °F
Wind: 12 mph from Southeast

Location: Isle Of Portland


UV Index: 0 (Low)

Visibility: 9 mi


Pressure: 30.08 "Hg

Humidity: 91%

Dew point: 49 °F

Location of WeymouthLocation

Historic Weather in Weymouth

°F

Weymouth temperature yesterday

Maximum temperature yesterday: 52 °F (at 1:00 PM)
Minimum temperature yesterday: 48 °F (at 10:00 PM)
Average temperature yesterday: 51 °F

Past Weeks' High & Low Weather Summary

 TemperatureHumidityPressure
High57 °F (Apr 11, 12:00 PM)100% (Apr 23, 5:00 PM)30.42 "Hg (Apr 23, 5:00 PM)
Low42 °F (Apr 19, 7:00 AM)55% (Apr 15, 11:00 AM)29.56 "Hg (Apr 20, 5:00 PM)
Average50 °F84%30.09 "Hg
* Reported Apr 9 2:00 PM — Apr 24 2:00 PM, Weymouth, Weather by CustomWeather, © 2014

Note: Actual official high and low records may vary slightly from our data, if they occured in-between our weather recording intervals... More about our weather records

Advertising

Historic Weather Conditions — Data for Previous 24 hours

 ConditionsComfort  
Time TempWeatherWind HumidityBarometerVisibility
2:00 PM
Apr 24
53 °FCool.14 mph90%30.09 "Hg11 mi
1:00 PM53 °FCool.10 mph94%30.11 "Hg9 mi
12:00 PM52 °FSmoke.12 mph94%30.11 "Hg7 mi
11:00 AM54 °FCool.9 mph94%30.12 "Hg9 mi
10:00 AM52 °FFog.9 mph99%30.12 "Hg6 mi
9:00 AM51 °FCool.7 mph99%30.12 "Hg7 mi
8:00 AM50 °FFog.5 mph99%30.12 "Hg5 mi
7:00 AM49 °FCool.2 mph99%30.11 "Hg6 mi
6:00 AM49 °FFog.2 mph99%30.11 "Hg2 mi
5:00 AM49 °FCool.3 mph100%30.11 "Hg1 mi
4:00 AM48 °FFog.5 mph99%30.11 "Hg2 mi
3:00 AM48 °FFog.6 mph99%30.11 "Hg5 mi
2:00 AM49 °FCool.9 mph99%30.11 "Hg9 mi
1:00 AM49 °FCool.7 mph99%30.11 "Hg9 mi
12:00 AM49 °FCool.7 mph100%30.11 "Hg12 mi
11:00 PM
Apr 23
49 °FCool.8 mph99%30.10 "Hg8 mi
10:00 PM48 °FDuststorm.7 mph100%30.10 "Hg0 mi
9:00 PM49 °FDuststorm.8 mph99%30.09 "Hg0 mi
8:00 PM51 °FFog.7 mph99%30.08 "Hg2 mi
7:00 PM51 °FFog.7 mph100%30.06 "Hg3 mi
6:00 PM51 °FFog.6 mph100%30.05 "Hg3 mi
5:00 PM51 °FCool.9 mph100%30.04 "Hg4 mi
4:00 PM51 °FLight rain. Cloudy.8 mph99%30.04 "Hg3 mi
3:00 PM51 °FRain. Cloudy.9 mph99%30.03 "Hg2 mi
Weather by CustomWeather, © 2014

See weather overview